Kodiak, AK

1:10 AM AKST on December 16, 2017 (GMT -0900)
Kodiak

Weather History for PADQ - December, 2012

Change the Weather History Date:

Sunday, December 9, 2012

  Actual Average Record
Temperature  
Mean Temperature 39 °F 31 °F  
Max Temperature 41 °F 36 °F 47 °F (1972)
Min Temperature 36 °F 26 °F 4 °F (1975)
Degree Days  
Heating Degree Days 26 34  
Month to date heating degree days 335 301  
Since 1 July heating degree days 3260 3096  
Cooling Degree Days 0 0  
Month to date cooling degree days 0 0  
Year to date cooling degree days 0 1  
Moisture  
Dew Point 31 °F    
Average Humidity 0    
Maximum Humidity 0    
Minimum Humidity 0    
Precipitation  
Precipitation 0.03 in 0.29 in 2.03 in (1962)
Month to date precipitation 1.36 2.52  
Year to date precipitation 53.66 71.79  
Snow  
Snow 0.00 in 0.50 in 6.70 in (1959)
Month to date snowfall 2.6 4.1  
Since 1 July snowfall 10.5 11.6  
Since 1 September snowfall 11.6  
Snow Depth T in    
Sea Level Pressure  
Sea Level Pressure 29.36 in    
Wind  
Wind Speed 3 mph (SSW)    
Max Wind Speed 12 mph    
Max Gust Speed 17 mph    
Visibility 10 miles    
Events Rain    
T = Trace of Precipitation, MM = Missing Value Source: NWS Daily Summary

Daily Weather History Graph

Daily Weather History Graph

Search for Another Location

Airport or City:

Trip Planner

Search our weather history database for the weather conditions in past years. The results will help you decide how hot, cold, wet, or windy it might be!

Date:

Astronomy

Dec. 09, 2012 Rise Set
Actual Time 9:41 AM AKST 4:23 PM AKST
Civil Twilight 8:51 AM AKST 5:13 PM AKST
Nautical Twilight 7:59 AM AKST 6:05 PM AKST
Astronomical Twilight 7:11 AM AKST 6:53 PM AKST
Moon 4:46 AM AKST (12/9) 2:12 PM AKST (12/9)
Length of Visible Light 8h 22m
Length of Day
6h 41m
Waning Crescent, 17% of the Moon is Illuminated
Dec 9
Waning Crescent
Dec 12
New
Dec 19
First Quarter
Dec 28
Full
Jan 4
Last Quarter

Hourly Weather History & Observations

Time (AKST) Temp. Windchill Dew Point Humidity Pressure Visibility Wind Dir Wind Speed Gust Speed Precip Events Conditions
12:40 AM 37.4 °F 34.9 °F 33.8 °F 87% 29.21 in 9.0 mi South 3.5 mph - 0.01 in Rain Light Rain
12:53 AM 37.0 °F - 34.0 °F 89% 29.21 in 9.0 mi Calm Calm - 0.02 in Rain Light Rain
1:34 AM 37.4 °F - 33.8 °F 87% 29.21 in 10.0 mi Calm Calm - 0.01 in Rain Light Rain
1:48 AM 37.4 °F - 33.8 °F 87% 29.21 in 10.0 mi Calm Calm - 0.01 in Rain Light Rain
1:53 AM 37.0 °F - 34.0 °F 89% 29.21 in 10.0 mi Calm Calm - 0.01 in Rain Light Rain
2:00 AM 37.4 °F - 33.8 °F 87% 29.21 in 10.0 mi Calm Calm - 0.00 in Rain Light Rain
2:22 AM 37.4 °F - 33.8 °F 87% 29.22 in 10.0 mi Calm Calm - 0.00 in Rain Light Rain
3:53 AM 39.0 °F 35.7 °F 34.0 °F 82% 29.23 in 10.0 mi SW 4.6 mph - N/A   Overcast
4:53 AM 39.0 °F 35.7 °F 33.1 °F 79% 29.23 in 10.0 mi SSW 4.6 mph - N/A   Mostly Cloudy
5:53 AM 37.9 °F 33.5 °F 33.1 °F 83% 29.24 in 10.0 mi SSW 5.8 mph - N/A   Mostly Cloudy
6:53 AM 39.0 °F 34.8 °F 33.1 °F 79% 29.26 in 10.0 mi South 5.8 mph - N/A   Mostly Cloudy
7:53 AM 37.9 °F - 33.1 °F 83% 29.28 in 10.0 mi Calm Calm - N/A   Mostly Cloudy
8:53 AM 41.0 °F - 32.0 °F 70% 29.29 in 10.0 mi Calm Calm - N/A   Mostly Cloudy
9:53 AM 39.9 °F 33.4 °F 32.0 °F 73% 29.31 in 10.0 mi SW 10.4 mph - N/A   Overcast
10:53 AM 39.9 °F 35.8 °F 32.0 °F 73% 29.34 in 10.0 mi SSW 5.8 mph - N/A   Mostly Cloudy
11:53 AM 39.9 °F 33.4 °F 32.0 °F 73% 29.38 in 10.0 mi South 10.4 mph - N/A   Mostly Cloudy
12:53 PM 41.0 °F 38.0 °F 32.0 °F 70% 29.40 in 10.0 mi SW 4.6 mph - N/A   Scattered Clouds
1:53 PM 41.0 °F 38.0 °F 32.0 °F 70% 29.43 in 10.0 mi SSW 4.6 mph - N/A   Scattered Clouds
2:53 PM 39.9 °F 35.8 °F 30.9 °F 70% 29.44 in 10.0 mi Variable 5.8 mph - N/A   Scattered Clouds
3:53 PM 39.9 °F 36.7 °F 30.0 °F 68% 29.46 in 10.0 mi SSW 4.6 mph - N/A   Mostly Cloudy
4:53 PM 39.9 °F 34.5 °F 28.0 °F 63% 29.49 in 10.0 mi South 8.1 mph 17.3 mph N/A   Mostly Cloudy
5:53 PM 39.0 °F 32.3 °F 28.9 °F 67% 29.50 in 10.0 mi SSW 10.4 mph - N/A   Mostly Cloudy
6:53 PM 37.9 °F 35.5 °F 28.9 °F 70% 29.52 in 10.0 mi SSW 3.5 mph - N/A   Mostly Cloudy
7:53 PM 37.0 °F 32.4 °F 28.9 °F 73% 29.53 in 10.0 mi South 5.8 mph - N/A   Scattered Clouds
8:53 PM 39.0 °F 34.0 °F 28.0 °F 65% 29.55 in 10.0 mi South 6.9 mph - N/A   Scattered Clouds
9:53 PM 37.0 °F 31.6 °F 28.0 °F 70% 29.57 in 10.0 mi SSW 6.9 mph - N/A   Scattered Clouds
10:53 PM 37.0 °F 33.3 °F 27.0 °F 67% 29.58 in 10.0 mi WSW 4.6 mph - N/A   Scattered Clouds
11:53 PM 32.0 °F 26.4 °F 27.0 °F 82% 29.58 in 10.0 mi West 5.8 mph - N/A   Scattered Clouds